Tracking 29892 objects as of 21-Nov-2024
HD Live streaming from Space Station
objects crossing your sky now

STARLINK-2342

Track STARLINK-2342 now!
10-day predictions
STARLINK-2342 is classified as:


NORAD ID: 47883
Int'l Code: 2021-021Z
Perigee: 554.1 km
Apogee: 554.6 km
Inclination: 53.1 °
Period: 95.6 minutes
Semi major axis: 6925 km
RCS: Unknown
Launch date: March 14, 2021
Source: United States (US)
Launch site: AIR FORCE EASTERN TEST RANGE (AFETR)
Your satellite tracking list
Your tracking list is empty




NASA's NSSDC Master Catalog

Two Line Element Set (TLE):
1 47883U 21021Z   24325.78439297  .00018055  00000-0  12275-2 0  9999
2 47883  53.0561 244.0611 0000365 293.9731  66.1220 15.06412185204868
Source of the keplerian elements: AFSPC